HBNEW EDDS-EDDN

Flight info

Callsign HBNEW
Flight time 0h 32m
Altitude 25000
Route DKB9B DKB N869 LETKU LETKU1V
Aircraft C510/L-SDFGRWY/LB1

Departure

Time 2026-05-04 18:29
Airport Stuttgart Airport (EDDS)

Arrival

Time 2026-05-04 19:02
Airport Nuremberg Airport (EDDN)
Time Latitude Longitude Altitude Speed Heading
2026-05-04 18:07 48.68323 9.20291 1278 ft 0 kts 163°
2026-05-04 18:21 48.68318 9.20242 1278 ft 17 kts 278°
2026-05-04 18:22 48.68398 9.20107 1281 ft 13 kts 343°
2026-05-04 18:22 48.68471 9.20075 1283 ft 0 kts 342°
2026-05-04 18:24 48.68536 9.20045 1282 ft 18 kts 343°
2026-05-04 18:24 48.68675 9.19989 1284 ft 8 kts 344°
2026-05-04 18:24 48.68744 9.19970 1281 ft 12 kts 22°
2026-05-04 18:25 48.68828 9.20029 1282 ft 14 kts 51°
2026-05-04 18:25 48.68867 9.20194 1279 ft 20 kts 71°
2026-05-04 18:25 48.68913 9.20429 1274 ft 26 kts 76°
2026-05-04 18:25 48.68970 9.20727 1265 ft 33 kts 74°
2026-05-04 18:26 48.69036 9.21079 1266 ft 37 kts 73°
2026-05-04 18:26 48.69105 9.21441 1251 ft 36 kts 74°
2026-05-04 18:26 48.69183 9.21793 1247 ft 35 kts 82°
2026-05-04 18:26 48.69229 9.22086 1231 ft 25 kts 74°
2026-05-04 18:27 48.69279 9.22361 1227 ft 29 kts 75°
2026-05-04 18:27 48.69341 9.22687 1222 ft 35 kts 72°
2026-05-04 18:27 48.69414 9.23067 1217 ft 40 kts 75°
2026-05-04 18:27 48.69500 9.23501 1205 ft 36 kts 81°
2026-05-04 18:28 48.69560 9.23837 1198 ft 30 kts 74°
2026-05-04 18:28 48.69599 9.24151 1190 ft 32 kts 106°
2026-05-04 18:28 48.69447 9.24336 1184 ft 27 kts 173°
2026-05-04 18:28 48.69373 9.24227 1186 ft 35 kts 256°
2026-05-04 18:29 48.69241 9.23529 1204 ft 101 kts 253°
2026-05-04 18:29 48.68996 9.22261 1287 ft 153 kts 257°
2026-05-04 18:29 48.68660 9.20480 1614 ft 184 kts 258°
2026-05-04 18:29 48.68345 9.18655 2565 ft 185 kts 258°
2026-05-04 18:30 48.67546 9.14548 3688 ft 212 kts 255°
2026-05-04 18:30 48.67114 9.12393 4377 ft 215 kts 254°
2026-05-04 18:30 48.66977 9.10136 4974 ft 222 kts 281°
2026-05-04 18:31 48.67723 9.08161 5680 ft 222 kts 314°
2026-05-04 18:31 48.68956 9.06723 6322 ft 226 kts 328°
2026-05-04 18:31 48.70439 9.05909 6922 ft 230 kts 349°
2026-05-04 18:31 48.72026 9.06152 7505 ft 234 kts 22°
2026-05-04 18:32 48.73276 9.07646 8115 ft 234 kts 56°
2026-05-04 18:32 48.73974 9.09854 8686 ft 233 kts 71°
2026-05-04 18:32 48.74710 9.12076 9283 ft 238 kts 61°
2026-05-04 18:32 48.75645 9.14174 9868 ft 241 kts 58°
2026-05-04 18:33 48.76572 9.16282 10392 ft 244 kts 60°
2026-05-04 18:33 48.77494 9.18454 10908 ft 246 kts 59°
2026-05-04 18:33 48.78431 9.20640 11423 ft 248 kts 59°
2026-05-04 18:33 48.79378 9.22843 11924 ft 250 kts 59°
2026-05-04 18:34 48.80327 9.25064 12412 ft 252 kts 59°
2026-05-04 18:34 48.81268 9.27260 12877 ft 254 kts 58°
2026-05-04 18:34 48.82233 9.29518 13347 ft 255 kts 58°
2026-05-04 18:34 48.83201 9.31786 13792 ft 257 kts 58°
2026-05-04 18:35 48.84149 9.34095 14141 ft 258 kts 65°
2026-05-04 18:35 48.84665 9.36670 14445 ft 259 kts 73°
2026-05-04 18:35 48.85647 9.38973 14797 ft 263 kts 47°
2026-05-04 18:35 48.86783 9.41157 15132 ft 265 kts 60°
2026-05-04 18:36 48.87676 9.43607 15523 ft 265 kts 63°
2026-05-04 18:36 48.88578 9.45987 15791 ft 268 kts 59°
2026-05-04 18:36 48.89651 9.48406 16069 ft 270 kts 57°
2026-05-04 18:36 48.90703 9.50782 16355 ft 271 kts 58°
2026-05-04 18:37 48.91729 9.53198 16643 ft 273 kts 59°
2026-05-04 18:37 48.92768 9.55626 16946 ft 275 kts 58°
2026-05-04 18:37 48.93807 9.58048 17240 ft 277 kts 58°
2026-05-04 18:37 48.94861 9.60505 17544 ft 278 kts 58°
2026-05-04 18:38 48.95920 9.62978 17847 ft 280 kts 58°
2026-05-04 18:38 48.96982 9.65465 18166 ft 281 kts 58°
2026-05-04 18:38 48.98041 9.67942 18446 ft 282 kts 58°
2026-05-04 18:38 48.99113 9.70454 18726 ft 284 kts 58°
2026-05-04 18:39 49.00191 9.72982 19016 ft 285 kts 58°
2026-05-04 18:39 49.01272 9.75523 19307 ft 287 kts 58°
2026-05-04 18:39 49.02354 9.78063 19601 ft 288 kts 58°
2026-05-04 18:39 49.03446 9.80635 19920 ft 290 kts 58°
2026-05-04 18:40 49.04562 9.83262 19972 ft 302 kts 58°
2026-05-04 18:40 49.05724 9.85998 19972 ft 313 kts 58°
2026-05-04 18:40 49.06924 9.88830 19978 ft 322 kts 58°
2026-05-04 18:40 49.08141 9.91701 19979 ft 329 kts 58°
2026-05-04 18:41 49.09389 9.94653 19980 ft 333 kts 58°
2026-05-04 18:41 49.10636 9.97603 19983 ft 336 kts 58°
2026-05-04 18:41 49.11923 10.00654 19985 ft 338 kts 58°
2026-05-04 18:41 49.13173 10.03619 19984 ft 340 kts 58°
2026-05-04 18:42 49.14454 10.06659 19988 ft 341 kts 58°
2026-05-04 18:42 49.15736 10.09711 19988 ft 341 kts 58°
2026-05-04 18:42 49.17035 10.12802 19988 ft 341 kts 58°
2026-05-04 18:42 49.18308 10.15837 19992 ft 342 kts 58°
2026-05-04 18:43 49.19575 10.18857 19990 ft 342 kts 58°
2026-05-04 18:43 49.20856 10.21917 19992 ft 342 kts 58°
2026-05-04 18:43 49.22138 10.24980 19996 ft 342 kts 58°
2026-05-04 18:43 49.23405 10.28017 19994 ft 342 kts 58°
2026-05-04 18:44 49.24272 10.30095 19913 ft 345 kts 58°
2026-05-04 18:44 49.25134 10.32161 19756 ft 349 kts 58°
2026-05-04 18:44 49.26893 10.36385 19437 ft 353 kts 58°
2026-05-04 18:44 49.28216 10.39564 19202 ft 355 kts 58°
2026-05-04 18:45 49.29530 10.42730 18968 ft 355 kts 58°
2026-05-04 18:45 49.30856 10.45922 18739 ft 355 kts 58°
2026-05-04 18:45 49.32163 10.49077 18511 ft 354 kts 58°
2026-05-04 18:45 49.33492 10.52289 18272 ft 352 kts 58°
2026-05-04 18:46 49.34845 10.55402 18002 ft 350 kts 52°
2026-05-04 18:46 49.36535 10.58079 17720 ft 348 kts 44°
2026-05-04 18:46 49.38246 10.60711 17449 ft 348 kts 46°
2026-05-04 18:46 49.39894 10.63346 17192 ft 346 kts 46°
2026-05-04 18:47 49.41342 10.66266 16916 ft 344 kts 60°
2026-05-04 18:47 49.42319 10.69583 16640 ft 342 kts 73°
2026-05-04 18:47 49.42807 10.73131 16380 ft 339 kts 86°
2026-05-04 18:47 49.42793 10.76741 15906 ft 340 kts 99°
2026-05-04 18:48 49.42434 10.80331 15405 ft 341 kts 101°
2026-05-04 18:48 49.42094 10.83928 14920 ft 346 kts 101°
2026-05-04 18:48 49.41748 10.87594 14437 ft 347 kts 101°
2026-05-04 18:48 49.41394 10.91221 13964 ft 331 kts 101°
2026-05-04 18:49 49.41078 10.94504 13453 ft 287 kts 101°
2026-05-04 18:49 49.40788 10.97478 12932 ft 280 kts 102°
2026-05-04 18:49 49.40495 11.00409 12409 ft 276 kts 102°
2026-05-04 18:49 49.40210 11.03320 11899 ft 274 kts 102°
2026-05-04 18:50 49.39927 11.06198 11394 ft 272 kts 102°
2026-05-04 18:50 49.39649 11.09029 10900 ft 270 kts 102°
2026-05-04 18:50 49.39367 11.11874 10413 ft 268 kts 102°
2026-05-04 18:50 49.39088 11.14696 9936 ft 267 kts 102°
2026-05-04 18:51 49.38809 11.17508 9417 ft 265 kts 102°
2026-05-04 18:51 49.38531 11.20271 8903 ft 264 kts 102°
2026-05-04 18:51 49.38256 11.23045 8391 ft 262 kts 101°
2026-05-04 18:51 49.37980 11.25791 7967 ft 257 kts 101°
2026-05-04 18:52 49.37710 11.28492 7951 ft 256 kts 101°
2026-05-04 18:52 49.37448 11.31082 7949 ft 256 kts 101°
2026-05-04 18:52 49.37168 11.33869 7951 ft 256 kts 101°
2026-05-04 18:52 49.36895 11.36564 7947 ft 256 kts 101°
2026-05-04 18:53 49.36622 11.39258 7947 ft 256 kts 101°
2026-05-04 18:53 49.36347 11.41950 7946 ft 255 kts 101°
2026-05-04 18:53 49.36076 11.44621 7827 ft 256 kts 101°
2026-05-04 18:53 49.35802 11.47298 7576 ft 252 kts 101°
2026-05-04 18:54 49.35533 11.49937 7328 ft 249 kts 101°
2026-05-04 18:54 49.35296 11.52555 7083 ft 246 kts 95°
2026-05-04 18:54 49.35495 11.55130 6835 ft 246 kts 77°
2026-05-04 18:54 49.36148 11.57547 6591 ft 246 kts 60°
2026-05-04 18:55 49.37229 11.59580 6339 ft 246 kts 43°
2026-05-04 18:55 49.40439 11.60582 5805 ft 248 kts 342°
2026-05-04 18:55 49.41889 11.59200 5545 ft 246 kts 318°
2026-05-04 18:56 49.43113 11.57367 5211 ft 248 kts 315°
2026-05-04 18:56 49.44333 11.55470 4815 ft 250 kts 313°
2026-05-04 18:56 49.45211 11.53254 4421 ft 252 kts 292°
2026-05-04 18:56 49.45675 11.50606 4035 ft 252 kts 281°
2026-05-04 18:57 49.45913 11.48000 4009 ft 239 kts 278°
2026-05-04 18:57 49.46153 11.45529 4007 ft 229 kts 280°
2026-05-04 18:57 49.46397 11.43144 4009 ft 223 kts 278°
2026-05-04 18:57 49.46610 11.40797 4002 ft 224 kts 279°
2026-05-04 18:58 49.46862 11.38437 4008 ft 221 kts 280°
2026-05-04 18:58 49.47076 11.36140 4005 ft 212 kts 278°
2026-05-04 18:58 49.47291 11.33972 4004 ft 203 kts 280°
2026-05-04 18:58 49.47507 11.31866 3895 ft 202 kts 278°
2026-05-04 18:59 49.47690 11.29837 3648 ft 186 kts 280°
2026-05-04 18:59 49.47912 11.27809 3403 ft 192 kts 280°
2026-05-04 18:59 49.48083 11.25874 3162 ft 182 kts 279°
2026-05-04 18:59 49.48279 11.23967 2928 ft 183 kts 282°
2026-05-04 19:00 49.48475 11.22023 2682 ft 185 kts 279°
2026-05-04 19:00 49.48653 11.20069 2440 ft 182 kts 281°
2026-05-04 19:00 49.48857 11.18176 2203 ft 177 kts 281°
2026-05-04 19:00 49.49012 11.16428 1980 ft 154 kts 281°
2026-05-04 19:01 49.49174 11.14893 1780 ft 137 kts 281°
2026-05-04 19:01 49.49309 11.13493 1600 ft 127 kts 279°
2026-05-04 19:01 49.49438 11.12215 1437 ft 119 kts 281°
2026-05-04 19:01 49.49547 11.11023 1289 ft 107 kts 279°
2026-05-04 19:02 49.49666 11.09912 1150 ft 105 kts 282°
2026-05-04 19:02 49.49768 11.08825 1047 ft 95 kts 281°
2026-05-04 19:02 49.49831 11.08225 1039 ft 41 kts 279°
2026-05-04 19:02 49.49871 11.07811 1044 ft 38 kts 274°
2026-05-04 19:03 49.49844 11.07645 1042 ft 10 kts 177°
2026-05-04 19:03 49.49801 11.07670 1042 ft 6 kts 154°
2026-05-04 19:03 49.49752 11.07707 1041 ft 4 kts 154°